Regional Weather Roundup
Issued by NWS

Home | Current Version | Previous Version | Graphics & Text | Print | Product List | Glossary On
Versions: 1 2 3 4 5 6 7 8 9 10 11 12 13 14 15 16 17 18 19 20 21 22 23 24 25 26 27 28 29 30 31 32 33 34 35 36 37 38 39 40 41 42 43 44 45 46 47 48 49 50
000
ASUS43 KMKX 200020
RWRWI

WISCONSIN REGIONAL WEATHER ROUNDUP
NATIONAL WEATHER SERVICE MILWAUKEE/SULLIVAN WI
600 PM CST THU JAN 19 2017

NOTE: "FAIR" INDICATES FEW OR NO CLOUDS BELOW 12,000 FEET WITH NO
SIGNIFICANT WEATHER AND/OR OBSTRUCTIONS TO VISIBILITY.

WIZ001-002-006>008-014>016-023>028-200100-
NORTHWEST WISCONSIN

CITY           SKY/WX    TMP DP  RH WIND       PRES   REMARKS
SUPERIOR ARPT  CLEAR     32  31  99 CALM      29.76R FOG
6HR MIN TEMP:  32; 6HR MAX TEMP:  47;

ASHLAND        CLEAR     39  32  76 SW6       29.78R WCI  35
6HR MIN TEMP:  38; 6HR MAX TEMP:  48;

HAYWARD        CLEAR     32  29  88 CALM      29.78R
6HR MIN TEMP:  32; 6HR MAX TEMP:  43;

SIREN          CLOUDY    40  32  74 S3        29.77S
6HR MIN TEMP:  39; 6HR MAX TEMP:  46;

CUMBERLAND     CLOUDY    34  32  93 SE5       29.78R WCI  30
RICE LAKE      CLOUDY    37  33  84 SE7       29.80R WCI  31
6HR MIN TEMP:  33; 6HR MAX TEMP:  37;

CHETEK         CLOUDY    37  32  81 SE3       29.79S
6HR MIN TEMP:  32; 6HR MAX TEMP:  38;

LADYSMITH      MOCLDY    37  33  84 SE3       29.81R
6HR MIN TEMP:  35; 6HR MAX TEMP:  40;

EAU CLAIRE     CLOUDY    39  32  76 SE3       29.79F
6HR MIN TEMP:  37; 6HR MAX TEMP:  40;

MENOMONIE        N/A    N/A N/A N/A MISG        N/A
NEW RICHMOND   CLOUDY    36  31  83 CALM      29.78R
6HR MIN TEMP:  36; 6HR MAX TEMP:  39;

OSCEOLA        CLOUDY    37  32  82 SE7       29.79F WCI  31
6HR MIN TEMP:  37; 6HR MAX TEMP:  41;

$$

WIZ003>005-009-010-017-018-200100-
NORTH CENTRAL WISCONSIN

CITY           SKY/WX    TMP DP  RH WIND       PRES   REMARKS
MANITOWISH WTR CLEAR     37  34  89 S8        29.78S WCI  30
ARBOR VITAE    CLEAR     37  32  84 S5        29.80R WCI  33
6HR MIN TEMP:  37; 6HR MAX TEMP:  42;

WOODRUFF       CLEAR     37  32  84 S5        29.80R WCI  33
6HR MIN TEMP:  37; 6HR MAX TEMP:  42;

RHINELANDER    CLEAR     36  32  85 S6        29.82R WCI  31
6HR MIN TEMP:  34; 6HR MAX TEMP:  43;

EAGLE RIVER    CLEAR     37  30  75 CALM      29.79F
6HR MIN TEMP:  35; 6HR MAX TEMP:  48;

LAND O LAKES   CLEAR     38  32  78 CALM      29.80F
6HR MIN TEMP:  36; 6HR MAX TEMP:  49;

PHILLIPS       PTCLDY    36  32  83 S7        29.79R WCI  31
6HR MIN TEMP:  35; 6HR MAX TEMP:  44;

TOMAHAWK       CLOUDY    32  31  95 CALM      29.83R FOG
6HR MIN TEMP:  32; 6HR MAX TEMP:  37;

MEDFORD        FOG       31  30  98 CALM      29.81S VSB 1/2
6HR MIN TEMP:  31; 6HR MAX TEMP:  32;

MERRILL        CLOUDY    32  32 100 CALM        N/A  FOG
6HR MIN TEMP:  32; 6HR MAX TEMP:  35;

$$

WIZ029-030-035-036-043>047-200100-
CENTRAL WISCONSIN

CITY           SKY/WX    TMP DP  RH WIND       PRES   REMARKS
WAUSAU         CLOUDY    32  31  96 SE6       29.82S FOG     WCI  26
6HR MIN TEMP:  32; 6HR MAX TEMP:  37;

MOSINEE        MOCLDY    32  32 100 E5        29.84S FOG     WCI  27
MARSHFIELD     FOG       32  31  96 E8        29.82R VSB 1/4 WCI  25
6HR MIN TEMP:  31; 6HR MAX TEMP:  34;

STEVENS POINT  CLOUDY    32  32 100 NE3       29.84F FOG
6HR MIN TEMP:  31; 6HR MAX TEMP:  32;

WAUPACA        CLOUDY    33  31  92 CALM      29.86F FOG
6HR MIN TEMP:  33; 6HR MAX TEMP:  36;

WAUTOMA        MOCLDY    32  31  96 E3        29.86F FOG
6HR MIN TEMP:  32; 6HR MAX TEMP:  39;

WISC RAPIDS    CLEAR     34  32  92 CALM      29.84F
6HR MIN TEMP:  33; 6HR MAX TEMP:  39;

CAMP DOUGLAS   CLOUDY    35  32  88 CALM      29.82F
6HR MIN TEMP:  34; 6HR MAX TEMP:  38;

$$

WIZ011>013-019>022-031-037>040-048>050-200100-
NORTHEAST WISCONSIN

CITY           SKY/WX    TMP DP  RH WIND       PRES   REMARKS
ANTIGO         FOG       30  30 100 S7        29.84S VSB 1/2 WCI  23
6HR MIN TEMP:  30; 6HR MAX TEMP:  32;

SHAWANO        CLOUDY    33  32  95 CALM      29.88S FOG
6HR MIN TEMP:  33; 6HR MAX TEMP:  36;

OCONTO         CLOUDY    32  31  97 CALM      29.89R
STURGEON BAY   FOG       32  30  93 S6        29.89F VSB 3/4 WCI  26
6HR MIN TEMP:  32; 6HR MAX TEMP:  34;

GREEN BAY      FOG       33  33 100 CALM      29.87F VSB 1/4
6HR MIN TEMP:  33; 6HR MAX TEMP:  34;

MANITOWOC      FOG       33  32  96 SE3       29.88F VSB 1/4
6HR MIN TEMP:  33; 6HR MAX TEMP:  36; 6HR PCP: TRACE;

APPLETON       FOG       30  30 100 CALM      29.84F VSB 3/8
CLINTONVILLE   CLOUDY    32  32 100 CALM      29.87S FOG
OSHKOSH        FOG       33  32  96 CALM      29.85F VSB 1/4
6HR MIN TEMP:  32; 6HR MAX TEMP:  34;

$$

WIZ032>034-041-042-053>061-200100-
SOUTHWEST WISCONSIN

CITY           SKY/WX    TMP DP  RH WIND       PRES   REMARKS
LA CROSSE      LGT RAIN  38  34  85 E7        29.80F WCI  33
6HR MIN TEMP:  35; 6HR MAX TEMP:  39; 6HR PCP:  0.02;

SPARTA         CLOUDY    37  33  85 SE3       29.83S
6HR MIN TEMP:  36; 6HR MAX TEMP:  42;

VIROQUA        CLOUDY    35  34  97 E7        29.80S WCI  29
6HR MIN TEMP:  32; 6HR MAX TEMP:  35;

BOSCOBEL       LGT RAIN  37  35  92 CALM      29.81F FOG
6HR MIN TEMP:  37; 6HR MAX TEMP:  39; 6HR PCP:  0.04;

PRAIRIE DU CHI RAIN      36  35  96 CALM      29.79F
6HR MIN TEMP:  34; 6HR MAX TEMP:  37; 6HR PCP:  0.10;

PLATTEVILLE    CLOUDY    35  35 100 E9        29.80F WCI  28
6HR MIN TEMP:  35; 6HR MAX TEMP:  37; 6HR PCP:  0.10;

$$

WIZ056-057-062-063-064-067-068-200100-
SOUTH CENTRAL WISCONSIN

CITY           SKY/WX    TMP DP  RH WIND       PRES   REMARKS
REEDSBURG      DRIZZLE   36  35  96 E3        29.82F
6HR MIN TEMP:  33; 6HR MAX TEMP:  37;

BARABOO/DELLS  CLOUDY    35  33  92 E3        29.82F FOG
6HR MIN TEMP:  34; 6HR MAX TEMP:  37;

LONE ROCK      LGT RAIN  36  34  92 E5        29.83F FOG     WCI  32
6HR MIN TEMP:  34; 6HR MAX TEMP:  38; 6HR PCP:  0.02;

MINERAL POINT  MOCLDY    36  36 100 E6        29.80F FOG     WCI  31
MADISON        LGT RAIN  36  34  92 CALM      29.85R FOG
6HR MIN TEMP:  33; 6HR MAX TEMP:  36; 6HR PCP:  0.01;

MIDDLETON      CLOUDY    37  37 100 CALM      29.84S
6HR MIN TEMP:  36; 6HR MAX TEMP:  40; 6HR PCP:  0.01;

WATERTOWN      CLOUDY    35  35 100 CALM      29.84F
6HR MIN TEMP:  33; 6HR MAX TEMP:  37;

MONROE         LGT RAIN  34  34 100 E3        29.80F VSB 1/4
JANESVILLE     LGT RAIN  37  37 100 CALM      29.83F FOG
$$

WIZ051-052-058>065-066-070>072-200100-
SOUTHEAST WISCONSIN

CITY           SKY/WX    TMP DP  RH WIND       PRES   REMARKS
MILWAUKEE      LGT RAIN  36  34  92 SE8       29.87F VSB 1/16WCI  30
6HR MIN TEMP:  35; 6HR MAX TEMP:  37; 6HR PCP: TRACE;

WAUKESHA       LGT RAIN  34  34 100 E5        29.86F WCI  30
MILWAUKEE/TIMM DRIZZLE   36  32  87 SE5       29.87F FOG     WCI  32
RACINE         FOG       35  34  96 E7        29.88F VSB 1/4 WCI  29
6HR MIN TEMP:  34; 6HR MAX TEMP:  36;

KENOSHA        FOG       36  35  96 E8        29.86F VSB 3/4 WCI  30
6HR MIN TEMP:  35; 6HR MAX TEMP:  38;

FOND DU LAC    FOG       34  32  92 CALM      29.85F VSB 1/4
6HR MIN TEMP:  33; 6HR MAX TEMP:  35;

SHEBOYGAN      FOG       32  30  92 CALM      29.87F VSB 1/4
6HR MIN TEMP:  32; 6HR MAX TEMP:  34;

WEST BEND      CLOUDY    32  32 100 CALM      29.86R FOG
JUNEAU         CLOUDY    33  33  99 NE5       29.85F FOG     WCI  29
6HR MIN TEMP:  32; 6HR MAX TEMP:  34;

$$

LSZ147-162-200100-
LAKE SUPERIOR

STATION/POSITION TIME  TEMP    WIND        PRES    WAVE
                       AIR SEA DIR/SP/G            HT/PER
                 (UTC) (F)     (DEG/KT/KT) (MB)    (FT/S)
DEVILS ISLAND    0000   34     100/  8/  8 1008.7R
PORT WING        2330   33     170/  3/  4 1008.1R
SAXON HARBOR     2330   34     280/  3/  5 1007.8S
$$

LMZ867-665-643>646-200100-
LAKE MICHIGAN

STATION/POSITION TIME  TEMP    WIND        PRES    WAVE
                       AIR SEA DIR/SP/G            HT/PER
                 (UTC) (F)     (DEG/KT/KT) (MB)    (FT/S)
NORTHPORT PIER   2340   33      CALM  /  5 1012.5R
SISTER BAY       2350   33     180/  8/ 10   N/A
ALGOMA LAKESHORE 2339          220/  8/ 10   N/A
KEWAUNEE LAKESHO 2348   33     200/  5/  9 1011.7F
SHEBOYGAN LAKESH 0000   34     190/  5/  5 1012.3R
PORT



USA.gov is the U.S. government's official web portal to all federal, state and local government web resources and services.